Weather History for YFRT - January, 2013

Change the Weather History Date:

Monday, January 7, 2013

  Actual Average Record
Temperature  
Mean Temperature 89 °F -  
Max Temperature 117 °F - - ()
Min Temperature 61 °F - - ()
Cooling Degree Days 24    
Growing Degree Days 39 (Base 50)    
Moisture  
Dew Point 51 °F    
Average Humidity 43    
Maximum Humidity 100    
Minimum Humidity 4    
Precipitation  
Precipitation 0.00 in - - ()
Sea Level Pressure  
Sea Level Pressure 29.90 in    
Wind  
Wind Speed 11 mph ()    
Max Wind Speed 26 mph    
Max Gust Speed 37 mph    
T = Trace of Precipitation, MM = Missing Value Source: Averaged Metar Reports

Daily Weather History Graph

Daily Weather History Graph

Search for Another Location

Airport or City:

Trip Planner

Search our weather history database for the weather conditions in past years. The results will help you decide how hot, cold, wet, or windy it might be!

Date:

Astronomy

Jan. 07, 2013 Rise Set
Actual Time 4:32 AM AWST 6:35 PM AWST
Civil Twilight 4:04 AM AWST 7:02 PM AWST
Nautical Twilight 3:31 AM AWST 7:35 PM AWST
Astronomical Twilight 2:55 AM AWST 8:11 PM AWST
Moon No Moon Rise 1:46 PM AWST (1/7)
Length of Visible Light 14h 57m
Length of Day
14h 02m
Waning Crescent, 28% of the Moon is Illuminated
Jan 7
Waning Crescent
Jan 12
New
Jan 19
First Quarter
Jan 27
Full
Feb 3
Last Quarter

Hourly Weather History & Observations

Time (AWST) Temp. Heat Index Dew Point Humidity Pressure Visibility Wind Dir Wind Speed Gust Speed Precip Events Conditions
12:00 AM 66 °F - 65 °F 97% 29.97 in - ESE 11.5 mph - -  
12:00 AM 66.2 °F - 66.2 °F 100% 29.98 in - ESE 11.5 mph - N/A   Unknown
1:00 AM 64.4 °F - 64.4 °F 100% 29.98 in - ESE 10.4 mph - N/A   Unknown
2:00 AM 64 °F - 63 °F 97% 29.95 in - ESE 8.1 mph - -  
2:00 AM 64.4 °F - 62.6 °F 94% 29.95 in - ESE 8.1 mph - N/A   Unknown
3:00 AM 63 °F - 63 °F 99% 29.94 in - ESE 8.1 mph - -  
3:00 AM 62.6 °F - 62.6 °F 100% 29.95 in - ESE 8.1 mph - N/A   Unknown
4:00 AM 62.6 °F - 62.6 °F 100% 29.95 in - ESE 6.9 mph - N/A   Unknown
5:00 AM 62 °F - 62 °F 100% 29.95 in - ESE 6.9 mph - -  
5:00 AM 62.6 °F - 62.6 °F 100% 29.95 in - ESE 6.9 mph - N/A   Unknown
6:00 AM 68 °F - 68 °F 98% 29.96 in - East 11.5 mph - -  
6:00 AM 68.0 °F - 68.0 °F 100% 29.98 in - East 11.5 mph - N/A   Unknown
7:00 AM 75.2 °F - 62.6 °F 65% 29.98 in - East 11.5 mph - N/A   Unknown
7:59 AM 84.2 °F 83.5 °F 57.2 °F 40% 29.95 in - East 12.7 mph - N/A   Unknown
8:00 AM 85 °F - 58 °F 29% 29.95 in - East 12.7 mph - -  
8:00 AM 86.0 °F 84.9 °F 57.2 °F 37% 29.95 in - East 12.7 mph - N/A   Unknown
9:00 AM 92 °F - 54 °F 18% 29.93 in - ENE 10.4 mph - -  
9:00 AM 91.4 °F 89.1 °F 53.6 °F 28% 29.95 in - ENE 10.4 mph - N/A   Unknown
10:00 AM 98.6 °F - 50.0 °F 19% 29.92 in - ENE 12.7 mph - N/A   Unknown
11:00 AM 105 °F - 44 °F 7% 29.88 in - NE 12.7 mph - -  
11:00 AM 105.8 °F - 44.6 °F 13% 29.89 in - NE 12.7 mph - N/A   Unknown
12:00 PM 110 °F - 39 °F 4% 29.85 in - NE 11.5 mph - -  
12:00 PM 111.2 °F - 39.2 °F 9% 29.86 in - NE 11.5 mph - N/A   Unknown
1:00 PM 111.2 °F - 33.8 °F 7% 29.83 in - ESE 8.1 mph 19.6 mph N/A   Unknown
2:00 PM 112 °F - 26 °F 4% 29.80 in - SW 9.2 mph - -  
2:00 PM 113.0 °F - 24.8 °F 5% 29.80 in - SW 9.2 mph - N/A   Unknown
3:00 PM 112 °F - 26 °F 4% 29.78 in - SSE 8.1 mph - -  
3:00 PM 113.0 °F - 24.8 °F 5% 29.80 in - SSE 8.1 mph - N/A   Unknown
3:26 PM 109.4 °F 107.9 °F 53.6 °F 16% 29.80 in - SE 24.2 mph - N/A   Unknown
4:00 PM 102.2 °F 100.9 °F 55.4 °F 21% 29.80 in - SE 26.5 mph - N/A   Unknown
4:39 PM 96.8 °F 94.4 °F 53.6 °F 23% 29.83 in - SE 25.3 mph 36.8 mph N/A   Unknown
5:00 PM 93 °F - 52 °F 16% 29.82 in - SE 25.3 mph - -  
5:00 PM 93.2 °F - 51.8 °F 24% 29.83 in - SE 25.3 mph - N/A   Unknown
6:00 PM 89 °F - 49 °F 16% 29.85 in - SE 21.9 mph - -  
6:00 PM 89.6 °F - 48.2 °F 24% 29.86 in - SE 21.9 mph - N/A   Unknown
7:00 PM 86.0 °F - 50.0 °F 29% 29.89 in - SE 17.3 mph - N/A   Unknown
8:00 PM 82 °F - 49 °F 22% 29.90 in - SE 18.4 mph - -  
8:00 PM 82.4 °F - 50.0 °F 32% 29.92 in - SE 18.4 mph - N/A   Unknown
9:00 PM 80 °F - 45 °F 19% 29.91 in - SE 13.8 mph - -  
9:00 PM 80.6 °F - 44.6 °F 28% 29.92 in - SE 13.8 mph - N/A   Unknown
10:00 PM 77.0 °F - 44.6 °F 32% 29.92 in - SE 12.7 mph - N/A   Unknown
11:00 PM 74 °F - 48 °F 29% 29.91 in - ESE 10.4 mph - -  
11:00 PM 73.4 °F - 48.2 °F 41% 29.92 in - ESE 10.4 mph - N/A   Unknown